This is the latest recevied weather packets stored in our database for station/object SV1JSO-13. If no packets are shown the sender has not sent any weather packets the latest 10 day(s).
| Time | Temp. | Humidity | Pressure | Rain* | Wind** | Luminosity | Snow |
|---|---|---|---|---|---|---|---|
| 1788274500 | 32.22° C | 32% | 1007.3 hPa | 0 mm | - | 240 W/m² | - |
| 1788274200 | 32.78° C | 31% | 1007.4 hPa | 0 mm | - | 250 W/m² | - |
| 1788273900 | 32.78° C | 31% | 1007.5 hPa | 0 mm | - | 268 W/m² | - |
| 1788273600 | 32.78° C | 31% | 1007.4 hPa | 0 mm | - | 277 W/m² | - |
| 1788273300 | 32.78° C | 32% | 1007.4 hPa | 0 mm | - | 291 W/m² | - |
| 1788273000 | 32.22° C | 32% | 1007.5 hPa | 0 mm | - | 306 W/m² | - |
| 1788272700 | 32.78° C | 31% | 1007.5 hPa | 0 mm | - | 321 W/m² | - |
| 1788272400 | 32.78° C | 32% | 1007.6 hPa | 0 mm | - | 335 W/m² | - |
| 1788272100 | 32.78° C | 36% | 1007.6 hPa | 0 mm | - | 350 W/m² | - |
| 1788271800 | 32.22° C | 38% | 1007.6 hPa | 0 mm | - | 366 W/m² | - |
| 1788271500 | 32.22° C | 38% | 1007.7 hPa | 0 mm | - | 379 W/m² | - |
| 1788271200 | 32.22° C | 39% | 1007.7 hPa | 0 mm | - | 393 W/m² | - |
| 1788270900 | 32.22° C | 39% | 1007.7 hPa | 0 mm | - | 407 W/m² | - |
| 1788270600 | 32.22° C | 40% | 1007.8 hPa | 0 mm | - | 420 W/m² | - |
| 1788270300 | 32.22° C | 41% | 1007.8 hPa | 0 mm | - | 435 W/m² | - |
| 1788270000 | 32.22° C | 44% | 1007.8 hPa | 0 mm | - | 450 W/m² | - |
| 1788269700 | 31.67° C | 45% | 1007.7 hPa | 0 mm | - | 458 W/m² | - |
| 1788269400 | 31.67° C | 47% | 1007.8 hPa | 0 mm | - | 477 W/m² | - |
| 1788269100 | 31.67° C | 46% | 1007.7 hPa | 0 mm | - | 487 W/m² | - |
| 1788268800 | 31.67° C | 47% | 1007.7 hPa | 0 mm | - | 503 W/m² | - |
| 1788268500 | 31.11° C | 50% | 1007.6 hPa | 0 mm | - | 518 W/m² | - |
| 1788268200 | 31.11° C | 48% | 1007.5 hPa | 0 mm | - | 533 W/m² | - |
| 1788267900 | 31.67° C | 47% | 1007.8 hPa | 0 mm | - | 545 W/m² | - |
| 1788267600 | 31.67° C | 43% | 1007.7 hPa | 0 mm | - | 562 W/m² | - |
| 1788267300 | 31.67° C | 38% | 1007.7 hPa | 0 mm | - | 571 W/m² | - |
* Rain latest hour (hover to see other rain measurements)
** Current wind speed in m/s (hover to see current wind gust speed)